Location: Unnamed
(42.1164°N, 2.7652°E)
Time: 22:14:48
(UTC+02:00)

SO-50 - Visible Passes

Search period start: 22 October 2021 00:00
Search period end: 31 October 2021 23:00
Orbit: 603 x 682 km, 64.6° (Epoch: 22 October)

Date Brightness Start Highest point End Pass type
(mag) Time Alt. Az. Time Alt. Az. Time Alt. Az.
22 Oct ? 04:37:27 11° NE 04:37:27 11° NE 04:38:36 10° NE visible
22 Oct ? 06:15:07 16° NNW 06:18:47 52° NE 06:23:29 10° SE visible
23 Oct ? 05:02:33 19° NE 05:02:44 19° NE 05:06:13 10° E visible
23 Oct ? 06:40:13 19° NW 06:43:39 71° WSW 06:48:27 10° SSE visible
23 Oct ? 20:53:31 10° S 20:53:48 12° S 20:53:48 12° S visible
24 Oct ? 05:27:48 37° NE 05:27:57 37° NE 05:32:25 10° ESE visible
24 Oct ? 07:05:30 17° WNW 07:08:17 30° WSW 07:12:29 10° S visible
24 Oct ? 21:17:40 10° SSW 21:19:21 23° SSW 21:19:21 23° SSW visible
25 Oct ? 05:53:14 75° ESE 05:53:14 75° ESE 05:57:45 10° SE visible
25 Oct ? 07:30:56 11° W 07:32:43 13° WSW 07:34:48 10° SW visible
25 Oct ? 20:03:30 10° SSE 20:06:54 22° ESE 20:07:04 22° ESE visible
25 Oct ? 21:42:44 10° WSW 21:44:44 24° WSW 21:44:44 24° WSW visible
26 Oct ? 04:41:04 10° ESE 04:41:04 10° ESE 04:41:10 10° ESE visible
26 Oct ? 06:18:47 37° SSW 06:18:47 37° SSW 06:22:14 10° S visible
26 Oct ? 20:27:06 10° SSW 20:31:26 53° ESE 20:32:19 45° ENE visible
26 Oct ? 22:08:40 10° W 22:10:00 16° W 22:10:00 16° W visible
27 Oct ? 05:06:43 11° SE 05:06:43 11° SE 05:06:53 10° SE visible
27 Oct ? 06:44:25 14° SW 06:44:25 14° SW 06:45:34 10° SSW visible
27 Oct ? 19:13:58 10° SE 19:16:22 14° ESE 19:18:47 10° ENE visible
27 Oct ? 20:51:47 10° SW 20:56:13 64° NW 20:57:23 45° N visible
28 Oct ? 19:36:45 10° S 19:40:48 35° ESE 19:44:39 12° NE visible
28 Oct ? 21:17:18 10° WSW 21:21:15 29° NW 21:22:18 26° NNW visible
29 Oct ? 20:00:59 10° SSW 20:05:27 86° ESE 20:09:25 14° NE visible
29 Oct ? 21:43:45 10° WNW 21:46:33 16° NW 21:47:04 16° NNW visible
30 Oct ? 20:26:08 10° WSW 20:30:22 41° NW 20:34:03 14° NNE visible
31 Oct ? 18:10:23 10° SSW 18:14:45 57° ESE 18:19:15 10° NE visible
31 Oct ? 19:52:07 10° W 19:55:32 21° NW 19:58:34 12° N visible
